STARLINK-37781, 69341

Orbit data source: Space-Track

STARLINK-37781, 69341 is a payload satellite owned by SpaceX/Seattle (US) in SSO that was launched on Wed, 03 Jun 2026 UTC via an FALCON 9 launch vehicle from the Air Force Western Test Range (AFWTR). Payload-class satellites include a variety of spacecraft equipped with specific instruments for various scientific and technological missions. These include communications satellites like Starlink; space stations such as the ISS; scientific satellites like the Hubble; Earth observation satellites from companies like Planet Labs, Umbra, and HawkEye 360; GPS; miniature CubeSats for education and research; and military/defense satellites.

Loading next visibility...
Identifier
69341, 2026-122N
Orbit
SSO
Country
Flag of USUS
Related business
Manufacturer
SpaceX/Seattle
Mission
Operational spacecraft
Bus & Motor
STARLINK V2MO, Unknown motor
Mass
575 kg wet, ~530 kg dry
Launch date (UTC)
2026-06-03 (2 weeks ago)
Launch vehicle
FALCON 9
Launch site
Air Force Western Test Range (AFWTR)
Object type
Payload
Rocket body
Debris
Shape & HBR
Unknown
Radar Cross Section
Large (>1 m²)

Expand to show TLE details & history
Last TLE update: 10 hours ago

TLE from 10 hours ago
0 STARLINK-37781
1 69341U 26122N   26171.41668980 -.02110525  00000-0 -33032-1 0  9995
2 69341  97.2854 200.9796 0001381  89.0681 251.1529 15.56891279  3874
Epoch: 2026-06-20T10:00Z
TLE epoch observation values (Epoch: 2026-06-20T10:00:01.998Z)
Latitude
-19.86402°
Longitude
144.9722°
Altitude
404.716 km
Speed
7.667 km/s
True Right ascension
13h 34m 26s
True Declination
-19° 44' 55"
Sunlit
Object was in full shadow at epoch
Visualization orbit readout
Latitude
Unknown
Longitude
Unknown
Altitude
Unknown
Speed
Unknown
Apparent Right ascension
Unknown
Apparent Declination
Unknown
Sunlit
N/A
Visualization observer readout
Local Sidereal Time
07:12:21
Azimuth
Unknown
Elevation
Unknown
Doppler factor
Unknown
Orbital elements
Apogee altitude
394.507 km
Perigee altitude
392.637 km
Semi-major axis
6,771.709 km
Eccentricity
0.00014
Inclination
97.2854°
RAAN
200.9796°
Arg. of periapsis
89.0681°
True anomaly
251.13792°
Mean anomaly
251.1529°
Eccentric anomaly
251.14541°
Mean motion
3.89489 °/min
Orbital period
92.43 mins
BSTAR
-0.033032
Loading maneuver chart data...
Computing Atmospheric mass density...
Loading historical data...
Loading historical data...
Loading historical data...
Loading historical data...
Loading historical data...
Loading historical data...
Loading historical data...

Documentation

Showing up to 5 results
|